Location: *
(33.8649°S, 62.1526°E)
Time: 13:01:13
(UTC+00:00)

SPOT 3 Rocket - Pass Details

Date: 17 January 2021
Orbit: 780 x 794 km, 98.7° (Epoch: 03 March)

Event Time Altitude Azimuth Distance (km) Brightness Sun altitude
Rises 17:45:42 0° 175° (S) 3,320 7.5 -26.6°
Reaches altitude 10° 17:48:07 10° 180° (S) 2,381 6.7 -26.9°
Maximum altitude 17:53:07 46° 252° (WSW) 1,063 4.4 -27.5°
Enters shadow 17:55:03 32° 302° (WNW) 1,340 4.7 -27.8°
